| time (UTC) | temp F | wind direction | speed MPH | gust MPH | rain 1hr in | rain 24hr in | rain mn in | humidity % | barometer mb |
| 20260831114554 | 64 | 222 | 8.0 | 16.0 | 0.00 | 0.02 | 0.01 | 79 | 1003.9 |
| 20260831113048 | 64 | 221 | 7.0 | 15.0 | 0.00 | 0.02 | 0.01 | 82 | 1003.7 |
| 20260831111550 | 63 | 237 | 7.0 | 14.0 | 0.00 | 0.02 | 0.01 | 84 | 1003.7 |
| 20260831110144 | 63 | 211 | 5.0 | 12.0 | 0.00 | 0.02 | 0.01 | 86 | 1003.5 |
| 20260831104544 | 62 | 253 | 7.0 | 14.0 | 0.00 | 0.02 | 0.01 | 88 | 1003.7 |
| 20260831103042 | 62 | 236 | 5.0 | 15.0 | 0.00 | 0.02 | 0.01 | 88 | 1003.6 |
| 20260831101544 | 63 | 249 | 10.0 | 14.0 | 0.00 | 0.02 | 0.01 | 85 | 1003.6 |
| 20260831100037 | 63 | 219 | 4.0 | 10.0 | 0.00 | 0.02 | 0.01 | 87 | 1003.4 |
| 20260831094540 | 63 | 223 | 9.0 | 18.0 | 0.00 | 0.02 | 0.01 | 85 | 1003.5 |
| 20260831093033 | 63 | 219 | 4.0 | 14.0 | 0.00 | 0.02 | 0.01 | 88 | 1003.2 |
| 20260831091538 | 63 | 198 | 7.0 | 11.0 | 0.00 | 0.02 | 0.01 | 87 | 1003.1 |
| 20260831090028 | 63 | 236 | 8.0 | 12.0 | 0.00 | 0.02 | 0.01 | 88 | 1002.9 |
| 20260831084525 | 62 | 209 | 6.0 | 15.0 | 0.00 | 0.02 | 0.01 | 90 | 1002.8 |
| 20260831083023 | 61 | 228 | 5.0 | 11.0 | 0.00 | 0.02 | 0.01 | 90 | 1002.6 |
| 20260831081522 | 61 | 225 | 6.0 | 10.0 | 0.00 | 0.02 | 0.01 | 90 | 1002.6 |
| 20260831080023 | 62 | 213 | 5.0 | 12.0 | 0.00 | 0.02 | 0.01 | 90 | 1002.5 |
| 20260831074518 | 62 | 232 | 6.0 | 10.0 | 0.00 | 0.02 | 0.01 | 91 | 1002.4 |
| 20260831073018 | 61 | 273 | 8.0 | 12.0 | 0.00 | 0.02 | 0.01 | 92 | 1002.3 |
| 20260831071515 | 61 | 254 | 7.0 | 13.0 | 0.00 | 0.02 | 0.01 | 92 | 1002.2 |
| 20260831070014 | 61 | 247 | 4.0 | 9.0 | 0.00 | 0.02 | 0.01 | 93 | 1002.0 |
| 20260831064510 | 61 | 241 | 5.0 | 9.0 | 0.00 | 0.02 | 0.01 | 93 | 1001.9 |
| 20260831063008 | 61 | 230 | 3.0 | 7.0 | 0.00 | 0.02 | 0.01 | 93 | 1001.7 |
| 20260831061514 | 61 | 250 | 5.0 | 8.0 | 0.00 | 0.02 | 0.01 | 93 | 1001.6 |
| 20260831060004 | 61 | 234 | 5.0 | 11.0 | 0.00 | 0.02 | 0.01 | 93 | 1001.5 |
| 20260831054502 | 61 | 239 | 6.0 | 11.0 | 0.01 | 0.02 | 0.01 | 93 | 1001.3 |
| 20260831053100 | 61 | 260 | 4.0 | 8.0 | 0.01 | 0.02 | 0.01 | 93 | 1001.0 |
| 20260831051557 | 62 | 233 | 3.0 | 8.0 | 0.01 | 0.02 | 0.01 | 93 | 1000.8 |
| 20260831050057 | 62 | 219 | 4.0 | 6.0 | 0.01 | 0.02 | 0.01 | 93 | 1000.7 |
| 20260831044616 | 62 | 214 | 3.0 | 6.0 | 0.00 | 0.01 | 0.00 | 93 | 1000.5 |
| 20260831043056 | 62 | 206 | 3.0 | 6.0 | 0.00 | 0.01 | 0.00 | 93 | 1000.6 |
| 20260831041612 | 62 | 195 | 3.0 | 6.0 | 0.00 | 0.01 | 0.00 | 93 | 1000.5 |
| 20260831040055 | 62 | 198 | 3.0 | 5.0 | 0.00 | 0.01 | 0.00 | 93 | 1000.3 |
| 20260831034554 | 62 | 172 | 4.0 | 7.0 | 0.00 | 0.01 | 0.00 | 93 | 1000.4 |
| 20260831033053 | 62 | 162 | 2.0 | 5.0 | 0.00 | 0.01 | 0.00 | 93 | 1000.3 |
| 20260831031552 | 62 | 175 | 1.0 | 4.0 | 0.00 | 0.01 | 0.00 | 93 | 1000.3 |
| 20260831030054 | 62 | 175 | 0.0 | 3.0 | 0.00 | 0.01 | 0.00 | 93 | 1000.3 |
| 20260831024551 | 62 | 63 | 1.0 | 2.0 | 0.00 | 0.01 | 0.00 | 93 | 1000.3 |
| 20260831023051 | 61 | 63 | 0.0 | 0.0 | 0.00 | 0.01 | 0.00 | 93 | 1000.2 |
| 20260831021553 | 61 | 63 | 0.0 | 0.0 | 0.00 | 0.01 | 0.00 | 93 | 1000.2 |
| 20260831020049 | 61 | 63 | 0.0 | 0.0 | 0.00 | 0.01 | 0.00 | 93 | 1000.2 |
| 20260831014548 | 61 | 63 | 0.0 | 0.0 | 0.00 | 0.01 | 0.00 | 93 | 1000.2 |
| 20260831013057 | 61 | 63 | 0.0 | 0.0 | 0.00 | 0.01 | 0.00 | 93 | 1000.2 |
| 20260831011548 | 62 | 63 | 0.0 | 0.0 | 0.00 | 0.01 | 0.00 | 93 | 1000.3 |
| 20260831010045 | 62 | 63 | 0.0 | 0.0 | 0.00 | 0.01 | 0.00 | 93 | 1000.3 |
| 20260831004545 | 62 | 63 | 0.0 | 1.0 | 0.00 | 0.01 | 0.00 | 93 | 1000.3 |
| 20260831003044 | 61 | 63 | 1.0 | 3.0 | 0.00 | 0.01 | 0.00 | 93 | 1000.4 |
| 20260831001542 | 61 | 63 | 0.0 | 0.0 | 0.00 | 0.01 | 0.00 | 93 | 1000.5 |
| 20260831000041 | 61 | 63 | 0.0 | 0.0 | 0.00 | 0.01 | 0.00 | 93 | 1000.5 |
| 20260830234546 | 61 | 63 | 0.0 | 0.0 | 0.00 | 0.01 | 0.00 | 92 | 1000.5 |
| 20260830233039 | 61 | 63 | 0.0 | 0.0 | 0.00 | 0.01 | 0.00 | 92 | 1000.5 |
| 20260830231541 | 62 | 63 | 0.0 | 1.0 | 0.00 | 0.01 | 0.00 | 92 | 1000.4 |
| 20260830230135 | 62 | 63 | 1.0 | 4.0 | 0.00 | 0.01 | 0.00 | 92 | 1000.5 |
| 20260830224533 | 62 | 63 | 0.0 | 3.0 | 0.00 | 0.02 | 0.00 | 92 | 1000.6 |
| 20260830223032 | 62 | 103 | 0.0 | 3.0 | 0.00 | 0.02 | 0.00 | 92 | 1000.6 |
| 20260830221531 | 62 | 64 | 2.0 | 5.0 | 0.00 | 0.02 | 0.00 | 92 | 1000.6 |
| 20260830220032 | 62 | 82 | 0.0 | 2.0 | 0.00 | 0.02 | 0.00 | 92 | 1000.6 |
| 20260830214529 | 62 | 82 | 0.0 | 2.0 | 0.00 | 0.02 | 0.02 | 92 | 1000.8 |
| 20260830213028 | 63 | 82 | 1.0 | 3.0 | 0.00 | 0.02 | 0.02 | 92 | 1000.8 |
| 20260830211527 | 63 | 82 | 1.0 | 4.0 | 0.00 | 0.02 | 0.02 | 92 | 1000.9 |
| 20260830210026 | 62 | 113 | 0.0 | 3.0 | 0.00 | 0.02 | 0.02 | 92 | 1001.1 |
| 20260830204526 | 62 | 113 | 0.0 | 2.0 | 0.00 | 0.02 | 0.02 | 92 | 1001.1 |
| 20260830203033 | 62 | 113 | 0.0 | 1.0 | 0.00 | 0.02 | 0.02 | 92 | 1001.1 |
| 20260830201535 | 62 | 113 | 0.0 | 3.0 | 0.00 | 0.02 | 0.02 | 92 | 1001.1 |
| 20260830200021 | 62 | 113 | 0.0 | 2.0 | 0.00 | 0.02 | 0.02 | 92 | 1001.2 |
| 20260830194520 | 62 | 113 | 0.0 | 0.0 | 0.00 | 0.02 | 0.02 | 92 | 1001.3 |
| 20260830193020 | 62 | 113 | 0.0 | 0.0 | 0.00 | 0.02 | 0.02 | 92 | 1001.3 |
| 20260830191523 | 62 | 113 | 0.0 | 3.0 | 0.00 | 0.02 | 0.02 | 92 | 1001.3 |
| 20260830190018 | 62 | 113 | 0.0 | 3.0 | 0.00 | 0.02 | 0.02 | 92 | 1001.4 |
| 20260830184516 | 62 | 113 | 0.0 | 0.0 | 0.00 | 0.02 | 0.02 | 92 | 1001.5 |
| 20260830183016 | 62 | 113 | 0.0 | 3.0 | 0.00 | 0.02 | 0.02 | 92 | 1001.5 |
| 20260830181515 | 62 | 113 | 0.0 | 2.0 | 0.00 | 0.02 | 0.02 | 92 | 1001.6 |
| 20260830180028 | 62 | 113 | 0.0 | 2.0 | 0.00 | 0.02 | 0.02 | 92 | 1001.7 |
| 20260830174521 | 62 | 113 | 0.0 | 2.0 | 0.00 | 0.02 | 0.02 | 92 | 1001.7 |
| 20260830173013 | 62 | 113 | 1.0 | 5.0 | 0.00 | 0.02 | 0.02 | 92 | 1001.7 |
| 20260830171512 | 62 | 57 | 0.0 | 5.0 | 0.00 | 0.02 | 0.02 | 92 | 1001.8 |
| 20260830170011 | 62 | 93 | 0.0 | 8.0 | 0.00 | 0.02 | 0.02 | 92 | 1001.9 |
| 20260830164510 | 62 | 103 | 1.0 | 6.0 | 0.00 | 0.02 | 0.02 | 92 | 1001.9 |
| 20260830163018 | 62 | 144 | 0.0 | 6.0 | 0.00 | 0.02 | 0.02 | 92 | 1001.9 |
| 20260830161507 | 62 | 125 | 0.0 | 4.0 | 0.00 | 0.02 | 0.02 | 92 | 1002.0 |
| 20260830160007 | 62 | 69 | 2.0 | 6.0 | 0.00 | 0.02 | 0.02 | 91 | 1002.1 |
| 20260830154505 | 62 | 110 | 2.0 | 5.0 | 0.00 | 0.02 | 0.02 | 91 | 1002.3 |
| 20260830153005 | 62 | 60 | 1.0 | 6.0 | 0.00 | 0.02 | 0.02 | 91 | 1002.5 |
| 20260830151504 | 62 | 136 | 4.0 | 7.0 | 0.00 | 0.02 | 0.02 | 91 | 1002.7 |
| 20260830150009 | 61 | 163 | 2.0 | 6.0 | 0.00 | 0.06 | 0.02 | 91 | 1002.7 |
| 20260830144503 | 61 | 94 | 1.0 | 7.0 | 0.00 | 0.06 | 0.02 | 91 | 1002.8 |
| 20260830143004 | 61 | 190 | 1.0 | 8.0 | 0.01 | 0.06 | 0.02 | 91 | 1002.9 |
| 20260830141507 | 61 | 140 | 2.0 | 7.0 | 0.01 | 0.06 | 0.02 | 90 | 1003.0 |
| 20260830140002 | 61 | 127 | 3.0 | 7.0 | 0.01 | 0.08 | 0.02 | 90 | 1003.2 |
| 20260830134602 | 62 | 165 | 5.0 | 12.0 | 0.01 | 0.08 | 0.02 | 88 | 1003.2 |
| 20260830133111 | 63 | 155 | 9.0 | 16.0 | 0.00 | 0.07 | 0.01 | 85 | 1003.2 |
| 20260830131600 | 64 | 133 | 7.0 | 17.0 | 0.00 | 0.07 | 0.01 | 84 | 1003.2 |
| 20260830130058 | 65 | 142 | 8.0 | 15.0 | 0.00 | 0.07 | 0.01 | 83 | 1003.0 |
| 20260830124618 | 65 | 170 | 14.0 | 19.0 | 0.00 | 0.14 | 0.01 | 83 | 1003.0 |
| 20260830123102 | 65 | 171 | 8.0 | 15.0 | 0.00 | 0.14 | 0.01 | 81 | 1003.0 |
| 20260830121556 | 67 | 160 | 14.0 | 19.0 | 0.00 | 0.14 | 0.01 | 76 | 1003.0 |
| 20260830120056 | 67 | 171 | 13.0 | 17.0 | 0.00 | 0.14 | 0.01 | 75 | 1003.0 |